Minatare, NE

6:50 AM MDT on September 28, 2016 (GMT -0600)
Heilig

Weather History for KBFF - October, 2013

Change the Weather History Date:

Friday, October 4, 2013

  Actual Average Record
Temperature  
Mean Temperature 38 °F 53 °F  
Max Temperature 43 °F 69 °F 89 °F (1963)
Min Temperature 32 °F 37 °F 20 °F (1899)
Degree Days  
Heating Degree Days 27 12  
Month to date heating degree days 60 46  
Since 1 July heating degree days 148 225  
Cooling Degree Days 0 0  
Month to date cooling degree days 0 0  
Year to date cooling degree days 1047 723  
Moisture  
Dew Point 33 °F    
Average Humidity 91    
Maximum Humidity 100    
Minimum Humidity 82    
Precipitation  
Precipitation 0.89 in 0.04 in 1.22 in (1998)
Month to date precipitation 0.95 0.17  
Year to date precipitation 11.17 13.65  
Snow  
Snow 6.10 in 0.00 in 6.20 in (2013)
Month to date snowfall 6.1 0.2  
Since 1 July snowfall 6.1 0.7  
Snow Depth 2.00 in    
Sea Level Pressure  
Sea Level Pressure 30.04 in    
Wind  
Wind Speed 21 mph (NW)    
Max Wind Speed 37 mph    
Max Gust Speed 47 mph    
Visibility 3 miles    
Events Fog , Rain , Snow    
T = Trace of Precipitation, MM = Missing Value Source: NWS Daily Summary

Daily Weather History Graph

Daily Weather History Graph

Search for Another Location

Airport or City:

Trip Planner

Search our weather history database for the weather conditions in past years. The results will help you decide how hot, cold, wet, or windy it might be!

Date:

Astronomy

Oct. 04, 2013 Rise Set
Actual Time 6:54 AM MDT 6:30 PM MDT
Civil Twilight 6:27 AM MDT 6:58 PM MDT
Nautical Twilight 5:54 AM MDT 7:30 PM MDT
Astronomical Twilight 5:22 AM MDT 8:02 PM MDT
Moon 6:33 AM MDT (10/4) 6:13 PM MDT (10/4)
Length of Visible Light 12h 31m
Length of Day
11h 35m
Waning Crescent, 0% of the Moon is Illuminated
Oct 4
Waning Crescent
Oct 4
New
Oct 11
First Quarter
Oct 18
Full
Oct 26
Last Quarter

Hourly Weather History & Observations

Time (MDT) Temp. Windchill Dew Point Humidity Pressure Visibility Wind Dir Wind Speed Gust Speed Precip Events Conditions
12:45 AM 44.6 °F 36.4 °F 42.8 °F 93% 29.84 in 3.0 mi NNE 20.7 mph 26.5 mph 0.02 in Rain Light Rain
12:53 AM 43.0 °F 34.8 °F 41.0 °F 93% 29.81 in 3.0 mi NNE 18.4 mph 25.3 mph 0.03 in Rain Light Rain
1:04 AM 42.8 °F 34.3 °F 41.0 °F 93% 29.84 in 4.0 mi NNE 19.6 mph 26.5 mph 0.01 in Rain Light Rain
1:13 AM 42.8 °F 34.3 °F 42.8 °F 100% 29.84 in 3.0 mi NNE 19.6 mph 25.3 mph 0.02 in Rain Rain
1:53 AM 42.1 °F 33.9 °F 41.0 °F 96% 29.85 in 8.0 mi North 17.3 mph 24.2 mph 0.04 in Rain Light Rain
2:53 AM 39.0 °F 29.9 °F 39.0 °F 100% 29.86 in 10.0 mi North 17.3 mph 25.3 mph 0.02 in Rain Light Rain
3:53 AM 39.0 °F 31.8 °F 39.0 °F 100% 29.89 in 7.0 mi North 11.5 mph 18.4 mph 0.03 in Rain Light Rain
4:53 AM 39.0 °F 29.3 °F - N/A% 29.90 in 10.0 mi North 19.6 mph 26.5 mph 0.04 in   Overcast
5:53 AM 36.0 °F 25.0 °F - N/A% 29.90 in 10.0 mi North 20.7 mph 31.1 mph 0.00 in   Overcast
6:10 AM 35.6 °F 24.8 °F - N/A% 29.91 in 10.0 mi North 19.6 mph 29.9 mph 0.00 in   Overcast
6:53 AM 36.0 °F 26.3 °F - N/A% 29.95 in 10.0 mi NNW 16.1 mph 25.3 mph 0.00 in Rain Light Rain
7:53 AM 35.1 °F 25.2 °F 35.1 °F 100% 29.96 in 8.0 mi NNW 16.1 mph 28.8 mph 0.02 in Rain Light Rain
8:13 AM 33.8 °F 22.8 °F 33.8 °F 100% 29.94 in 4.0 mi NNW 18.4 mph 25.3 mph 0.02 in Rain Light Rain
8:43 AM 33.8 °F 24.8 °F 33.8 °F 100% 29.95 in 2.5 mi NW 12.7 mph 21.9 mph 0.03 in Snow Light Snow
8:48 AM 33.8 °F 25.8 °F 33.8 °F 100% 29.97 in 2.5 mi NW 10.4 mph - 0.03 in Snow Light Snow
8:53 AM 34.0 °F 25.0 °F 34.0 °F 100% 29.99 in 2.5 mi WNW 12.7 mph - 0.04 in Snow Light Snow
9:07 AM 33.8 °F 24.8 °F 33.8 °F 100% 29.99 in 1.0 mi West 12.7 mph - 0.01 in Snow Light Snow
9:11 AM 33.8 °F 24.8 °F 33.8 °F 100% 29.98 in 0.8 mi WNW 12.7 mph - 0.02 in Snow Light Snow
9:53 AM 33.1 °F 23.4 °F 33.1 °F 100% 30.00 in 0.5 mi WNW 13.8 mph - 0.10 in Fog , Snow Snow
10:53 AM 33.1 °F 23.0 °F 33.1 °F 100% 30.02 in 0.5 mi NW 15.0 mph - 0.11 in Fog , Snow Snow
11:24 AM 33.8 °F 24.3 °F 33.8 °F 100% 29.99 in 0.2 mi WNW 13.8 mph - 0.05 in Fog , Snow Heavy Snow
11:42 AM 33.8 °F 23.5 °F 33.8 °F 100% 30.00 in 0.2 mi WNW 16.1 mph - 0.12 in Fog , Snow Heavy Snow
11:53 AM 33.1 °F 22.2 °F 33.1 °F 100% 30.02 in 0.2 mi WNW 17.3 mph - 0.15 in Fog , Snow Heavy Snow
12:16 PM 33.8 °F 22.8 °F - N/A% 30.00 in 0.2 mi WNW 18.4 mph - 0.14 in Snow Heavy Snow
12:23 PM 33.8 °F 23.2 °F 33.8 °F 100% 30.01 in 0.5 mi WNW 17.3 mph - 0.15 in Fog , Snow Snow
12:53 PM 34.0 °F 22.7 °F 34.0 °F 100% 30.04 in 0.8 mi WNW 19.6 mph 24.2 mph 0.18 in Snow Light Snow
1:53 PM 34.0 °F 21.8 °F 34.0 °F 100% 30.06 in 0.8 mi NW 23.0 mph 38.0 mph 0.05 in Snow Light Snow
2:50 PM 33.8 °F 22.2 °F 33.8 °F 100% 30.04 in 1.0 mi NW 20.7 mph 32.2 mph 0.05 in Snow Light Snow
2:53 PM 34.0 °F 22.4 °F 34.0 °F 100% 30.08 in 1.0 mi NW 20.7 mph 32.2 mph 0.05 in Snow Light Snow
3:05 PM 33.8 °F 21.3 °F 33.8 °F 100% 30.04 in 1.2 mi NW 24.2 mph 32.2 mph 0.00 in Snow Light Snow
3:40 PM 33.8 °F 20.5 °F 33.8 °F 100% 30.05 in 0.8 mi NW 27.6 mph 38.0 mph 0.01 in Snow Light Snow
3:53 PM 34.0 °F 21.0 °F 33.1 °F 96% 30.10 in 0.8 mi NW 26.5 mph 42.6 mph 0.02 in Snow Light Snow
4:01 PM 33.8 °F 20.3 °F 32.0 °F 93% 30.06 in 1.0 mi NW 28.8 mph 36.8 mph 0.00 in Snow Light Snow
4:21 PM 33.8 °F 20.5 °F 32.0 °F 93% 30.07 in 0.8 mi NW 27.6 mph 36.8 mph 0.00 in Snow Light Snow
4:53 PM 34.0 °F 20.5 °F 32.0 °F 92% 30.14 in 0.8 mi WNW 28.8 mph 35.7 mph 0.01 in Snow Light Snow
5:19 PM 33.8 °F 21.3 °F 32.0 °F 93% 30.11 in 1.0 mi WNW 24.2 mph 33.4 mph 0.01 in Snow Light Snow
5:24 PM 33.8 °F 21.9 °F 30.2 °F 87% 30.11 in 1.0 mi WNW 21.9 mph 29.9 mph 0.01 in Snow Light Snow
5:32 PM 33.8 °F 20.8 °F 30.2 °F 87% 30.11 in 1.2 mi WNW 26.5 mph 35.7 mph 0.01 in Snow Light Snow
5:48 PM 33.8 °F 21.0 °F 30.2 °F 87% 30.11 in 1.5 mi NW 25.3 mph 34.5 mph 0.01 in Snow Light Snow
5:53 PM 33.1 °F 19.3 °F 30.9 °F 92% 30.17 in 1.5 mi NW 28.8 mph 36.8 mph 0.01 in Snow Light Snow
6:13 PM 33.8 °F 19.9 °F 30.2 °F 87% 30.12 in 0.8 mi NW 31.1 mph 42.6 mph 0.01 in Snow Light Snow
6:24 PM 33.8 °F 21.0 °F 30.2 °F 87% 30.13 in 0.8 mi WNW 25.3 mph 40.3 mph 0.01 in Snow Light Snow
6:38 PM 33.8 °F 21.3 °F 30.2 °F 87% 30.13 in 1.0 mi WNW 24.2 mph 38.0 mph 0.01 in Snow Light Snow
6:53 PM 33.1 °F 19.6 °F 30.9 °F 92% 30.19 in 1.0 mi WNW 27.6 mph 35.7 mph 0.02 in Snow Light Snow
7:03 PM 33.8 °F 21.0 °F 30.2 °F 87% 30.14 in 1.5 mi WNW 25.3 mph 36.8 mph 0.00 in Snow Light Snow
7:07 PM 33.8 °F 20.8 °F 30.2 °F 87% 30.14 in 2.0 mi WNW 26.5 mph 36.8 mph 0.00 in Snow Light Snow
7:22 PM 33.8 °F 20.1 °F 30.2 °F 87% 30.14 in 3.0 mi WNW 29.9 mph 38.0 mph 0.00 in Snow Light Snow
7:53 PM 33.1 °F 20.1 °F 30.0 °F 89% 30.21 in 9.0 mi WNW 25.3 mph 39.1 mph 0.00 in   Overcast
8:53 PM 33.1 °F 19.3 °F 30.0 °F 89% 30.21 in 2.5 mi WNW 28.8 mph 42.6 mph 0.00 in Snow Light Snow
9:13 PM 33.8 °F 19.9 °F 30.2 °F 87% 30.14 in 2.5 mi NW 31.1 mph 47.2 mph 0.00 in Snow Light Snow
9:18 PM 33.8 °F 19.0 °F 28.4 °F 81% 30.14 in 3.0 mi NW 35.7 mph 42.6 mph 0.00 in Snow Light Snow
9:53 PM 33.1 °F 19.1 °F 28.0 °F 82% 30.21 in 7.0 mi NW 29.9 mph 43.7 mph 0.00 in Snow Light Snow
10:38 PM 32.0 °F 18.1 °F 28.4 °F 87% 30.14 in 2.0 mi NW 27.6 mph 41.4 mph 0.00 in Snow Light Snow
10:53 PM 32.0 °F 19.5 °F 28.9 °F 88% 30.20 in 2.5 mi WNW 21.9 mph 33.4 mph 0.00 in Snow Light Snow
11:01 PM 33.8 °F 20.1 °F 28.4 °F 81% 30.13 in 3.0 mi WNW 29.9 mph 35.7 mph 0.00 in Snow Light Snow
11:53 PM 33.1 °F 20.9 °F 28.0 °F 82% 30.19 in 6.0 mi WNW 21.9 mph 34.5 mph 0.00 in Snow Light Snow